Station THRO1 - 9063085 - Toledo, OH Image indicating link to RSS feed of recent meteorological observations for station THRO1


Conditions at THRO1 as of
(5:00 pm EDT)
2100 GMT on 05/22/2024:
     

Click on the graph icon in the table below to see a time series plot of the last five days of that observation.

5-day plot - Wind Direction Wind Direction (WDIR):WSW ( 250 deg true )
5-day plot - Wind Speed Wind Speed (WSPD):6.7 m/s
5-day plot - Wind Gust Wind Gust (GST):10.3 m/s
5-day plot - Atmospheric Pressure Atmospheric Pressure (PRES):1005.1 mb
5-day plot - Air Temperature Air Temperature (ATMP): 30.0 °C
5-day plot - Dew Point Dew Point (DEWP): 11.4 °C
5-day plot - Heat Index Heat Index (HEAT): 28.9 °C
5-day plot - Wind Speed at 10 Meters Wind Speed at 10 meters (WSPD10M): 6 m/s
5-day plot - Wind Speed at 20 Meters Wind Speed at 20 meters (WSPD20M): 7 m/s
5-day plot -  Wind Speed, Wind Gust and Atmospheric Pressure Combined plot of Wind Speed, Gust, and Air Pressure
NOS Water Level Observation Network Water Level
Previous observations
TIME
(EDT)
5-day plot - Wind Direction
WDIR
 
5-day plot - Wind Speed
WSPD
m/s
5-day plot - Wind Gust
GST
m/s
5-day plot - Wave Height
WVHT
m
5-day plot - Dominant Wave Period
DPD
sec
5-day plot - Average Wave Period
APD
sec
5-day plot - Mean Wave Direction
MWD
 
5-day plot - Atmospheric Pressure
PRES
mb
5-day plot - Pressure Tendency
PTDY
mb
5-day plot - Air Temperature
ATMP
°C
5-day plot - Water Temperature
WTMP
°C
5-day plot - Dew Point
DEWP
°C
5-day plot - Salinity
SAL
psu
5-day plot - Visibility
VIS
km
5-day plot - Tide (above MLLW)
TIDE
m
2024-05-22 04:54 pm W 6.2 12.4----1005.2- 30.0- 11.8---
2024-05-22 04:48 pmWSW 7.2 10.3----1005.3- 30.3- 11.1---
2024-05-22 04:42 pmWSW 5.1 10.8----1005.3- 30.2- 12.8---
2024-05-22 04:36 pm W 8.2 11.8----1005.3- 29.9- 12.7---
2024-05-22 04:30 pmWSW 6.2 11.8----1005.3- 29.9- 13.3---
2024-05-22 04:24 pm W 8.2 12.4----1005.4- 29.9- 12.5---
2024-05-22 04:18 pm SW 7.2 12.9----1005.4- 30.0- 13.2---
2024-05-22 04:12 pm W 8.8 11.8----1005.4- 29.9- 12.6---
2024-05-22 04:06 pm W 8.2 12.4----1005.5- 29.9- 12.7---
2024-05-22 04:00 pmWSW 5.1 10.8----1005.6 -0.3 30.0- 13.9---
2024-05-22 03:54 pmWSW 7.2 10.8----1005.6- 30.0- 13.1---
2024-05-22 03:48 pm W 9.8 13.9----1005.6- 29.8- 12.8---
2024-05-22 03:42 pmWSW 7.2 11.3----1005.6- 30.0- 13.6---
2024-05-22 03:36 pm W 6.7 12.4----1005.5- 30.2- 14.2---
2024-05-22 03:30 pmWSW 7.2 10.3----1005.5- 30.3- 14.5---
2024-05-22 03:24 pm W 8.2 11.3----1005.3- 30.0- 14.4---
2024-05-22 03:18 pmWSW 6.7 11.3----1005.3- 30.2- 14.6---
2024-05-22 03:12 pmWSW 7.2 11.8----1005.2- 30.1- 15.4---
2024-05-22 03:06 pmWSW 6.7 10.3----1005.2- 29.8- 15.3---
2024-05-22 03:00 pmWSW 7.7 10.3----1005.3 -1.0 29.9- 15.4---
2024-05-22 02:54 pmWSW 7.2 9.8----1005.3- 29.8- 15.8---
2024-05-22 02:48 pmWSW 7.7 12.4----1005.4- 29.8- 15.6---
2024-05-22 02:42 pm W 7.7 11.3----1005.4- 29.5- 15.3---
2024-05-22 02:36 pm W 6.7 9.8----1005.4- 29.9- 15.4---
2024-05-22 02:30 pm SW 5.1 10.8----1005.4- 29.8- 15.5---
2024-05-22 02:24 pm SW 7.7 11.8----1005.4- 29.6- 15.0---
2024-05-22 02:18 pmWSW 7.7 12.4------------
2024-05-22 02:12 pm SW 6.7 11.3------------
2024-05-22 02:06 pm W 6.7 11.8------------
2024-05-22 02:00 pmWSW 5.7 10.3------------
2024-05-22 01:54 pm SW 6.7 10.8------------
2024-05-22 01:48 pmWSW 6.7 9.8------------
2024-05-22 01:42 pm SW 6.7 10.3------------
2024-05-22 01:36 pmWSW 6.7 9.8------------
2024-05-22 01:30 pm SW 6.2 8.8----1005.8-------
2024-05-22 01:24 pm SW 5.1 10.8----1005.8-------
2024-05-22 01:18 pm SW 5.7 9.8------------
2024-05-22 01:12 pm SW 5.1 9.3------------
2024-05-22 01:06 pmWSW 6.2 10.8------------
2024-05-22 01:00 pmWSW 7.2 11.3----1005.9 +0.0------
2024-05-22 12:54 pm SW 3.6 9.3----1005.9-------
2024-05-22 12:48 pmWSW 7.7 12.9------------
2024-05-22 12:42 pm SW 6.2 10.8------------
2024-05-22 12:36 pmWSW 5.1 8.2------------
2024-05-22 12:30 pmWSW 5.7 9.8------------
2024-05-22 12:24 pm SW 6.2 11.3------------
2024-05-22 12:18 pm SW 5.1 8.2------ 27.7- 16.9---
2024-05-22 12:12 pmWSW 8.2 12.4------ 27.4- 16.9---
2024-05-22 12:06 pm SW 5.7 9.8------ 27.3- 17.4---
2024-05-22 12:00 pmWSW 8.2 10.8----1006.3 +0.0 27.5- 17.3---
2024-05-22 11:54 amWSW 5.1 10.8----1006.3- 27.5- 17.5---
2024-05-22 11:48 amWSW 5.1 9.8----1006.2- 27.1- 17.3---
2024-05-22 11:42 am SW 5.1 8.8----1006.2- 27.2- 17.9---
2024-05-22 11:36 am SW 6.7 10.8----1006.3- 27.5- 17.6---
2024-05-22 11:30 am SW 7.2 12.4----1006.2- 27.3- 17.6---
2024-05-22 11:24 amWSW 7.7 10.8----1006.2- 27.3- 17.3---
2024-05-22 11:18 amWSW 6.7 10.3----1006.2- 27.4- 17.6---
2024-05-22 11:12 amWSW 5.7 9.3----1006.2- 27.1- 17.7---
2024-05-22 11:06 amWSW 6.7 10.3----1006.2- 26.9- 17.5---
2024-05-22 11:00 amWSW 7.2 11.3----1006.1 +0.0 27.0- 17.7---
2024-05-22 10:54 amWSW 6.2 10.3----1006.1- 27.3- 17.8---
2024-05-22 10:48 am SW 5.1 7.2----1006.0-------
2024-05-22 10:42 amWSW 4.6 9.3----1005.9-------
2024-05-22 10:36 am SW 6.2 10.3----1005.9-------
2024-05-22 10:30 amWSW 6.7 11.3------------
2024-05-22 10:24 amWSW 6.7 10.8------------
2024-05-22 10:18 amWSW 6.2 8.8------------
2024-05-22 10:12 amWSW 4.6 7.7------------
2024-05-22 10:06 amWSW 5.1 8.2------------
2024-05-22 10:00 am SW 5.1 8.8----1005.9 +0.0 26.8- 17.6---
2024-05-22 09:54 am SW 5.7 10.3----1006.0- 26.6- 17.5---
2024-05-22 09:48 am SW 6.2 10.8----1006.1-------
2024-05-22 09:42 am SW 6.7 12.9----1006.2-------
2024-05-22 09:36 amWSW 6.7 13.4----1006.3-------
2024-05-22 09:30 amWSW 5.7 10.8------------
2024-05-22 09:24 amWSW 4.6 10.3------------
2024-05-22 09:18 am SW 5.1 8.8----1006.2-------
2024-05-22 09:12 am SW 6.2 10.3----1006.2-------
2024-05-22 09:06 am SW 5.7 12.9----1006.3-------
2024-05-22 09:00 am SW 6.2 10.3----1006.3 +0.5 25.9- 17.1---
2024-05-22 08:54 am SW 7.7 12.4----1006.3- 25.9- 17.2---
2024-05-22 08:48 am SW 6.2 10.8----1006.2- 25.8- 17.1---
2024-05-22 08:42 am SW 5.7 10.8----1006.0- 25.8- 17.1---
2024-05-22 08:36 amSSW 5.7 9.3----1006.0- 25.6- 16.9---
2024-05-22 08:30 amSSW 5.7 9.8----1006.0- 25.7- 16.7---
2024-05-22 08:24 amSSW 3.6 10.3----1006.0- 26.0- 16.8---
2024-05-22 08:18 amSSW 4.6 9.8----1006.0- 25.7- 16.6---
2024-05-22 08:12 amSSW 4.6 8.8----1006.0- 25.7- 16.5---
2024-05-22 08:06 am SW 5.7 9.3----1005.9- 25.5- 16.5---
2024-05-22 08:00 amSSW 6.2 8.8----1005.9 +0.0 25.0- 16.6---
2024-05-22 07:54 amSSW 4.6 7.2----1005.8- 24.8- 16.8---
2024-05-22 07:48 amSSW 3.1 8.2----1005.8- 24.8- 16.8---
2024-05-22 07:42 amSSW 5.7 8.8----1005.8- 24.8- 16.7---
2024-05-22 07:36 amSSW 5.7 8.8----1005.8- 24.7- 16.7---
2024-05-22 07:30 amSSW 4.6 9.3----1005.8- 24.7- 16.7---
2024-05-22 07:24 amSSW 6.7 8.8----1005.9- 24.7- 16.6---
2024-05-22 07:18 amSSW 6.7 9.3----1005.9- 24.8- 16.6---
2024-05-22 07:12 amSSW 6.2 8.2----1006.0- 24.9- 16.7---
2024-05-22 07:06 amSSW 3.6 7.7----1005.9- 24.8- 16.7---
2024-05-22 07:00 amSSW 4.6 8.2----1005.9 +0.4 24.8- 16.8---
2024-05-22 06:54 amSSW 6.2 9.3----1005.9- 24.9- 16.5---
2024-05-22 06:48 amSSW 5.1 8.8----1006.0- 25.0- 16.6---
2024-05-22 06:42 amSSW 5.1 8.2----1006.0- 24.8- 16.6---
2024-05-22 06:36 amSSW 5.7 8.8----1005.9- 24.8- 16.5---
2024-05-22 06:30 amSSW 4.6 7.7----1005.8- 24.7- 16.4---
2024-05-22 06:24 amSSW 4.1 9.3----1005.8- 24.7- 16.5---
2024-05-22 06:18 amSSW 4.6 7.7----1005.8- 24.8- 16.5---
2024-05-22 06:12 amSSW 5.1 8.2----1005.8- 24.7- 16.4---
2024-05-22 06:06 amSSW 4.6 7.2----1005.8- 24.8- 16.4---
2024-05-22 06:00 amSSW 5.1 8.8----1005.8 -0.3 24.9- 16.4---
2024-05-22 05:54 amSSW 5.7 9.3----1005.7- 24.8- 16.3---
2024-05-22 05:48 amSSW 5.7 8.2----1005.7- 24.9- 16.4---
2024-05-22 05:42 amSSW 4.6 6.7----1005.7- 24.9- 16.4---
2024-05-22 05:36 amSSW 6.2 8.8----1005.7- 24.9- 16.4---
2024-05-22 05:30 amSSW 6.2 9.8----1005.8- 24.9- 16.4---
2024-05-22 05:24 amSSW 5.7 10.8----1005.7- 24.9- 16.6---
2024-05-22 05:18 am SW 4.6 9.8----1005.7- 24.8- 16.7---
2024-05-22 05:12 amSSW 5.7 8.2----1005.6- 24.8- 16.7---
2024-05-22 05:06 amSSW 6.2 8.8----1005.6- 24.8- 16.9---
2024-05-22 05:00 amSSW 7.2 9.8----1005.7 -1.6 24.9- 17.0---
2024-05-22 04:54 amSSW 5.1 8.2----1005.6- 24.7- 17.2---
2024-05-22 04:48 am S 5.7 9.3----1005.6- 24.7- 17.3---
2024-05-22 04:42 amSSW 4.1 7.7----1005.5- 24.6- 17.3---
2024-05-22 04:36 am S 5.1 8.2----1005.6- 24.6- 17.3---
2024-05-22 04:30 amSSW 3.6 8.2----1005.6- 24.6- 17.6---
2024-05-22 04:24 am S 4.6 8.8----1005.5- 24.5- 17.6---
2024-05-22 04:18 am S 3.1 6.2----1005.6- 24.5- 17.7---
2024-05-22 04:12 am S 4.1 6.7----1005.5- 24.4- 17.9---
2024-05-22 04:06 am S 3.6 8.2----1005.6- 24.5- 17.9---
2024-05-22 04:00 am S 4.6 7.2----1005.5 -2.0 24.6- 18.1---
2024-05-22 03:54 amSSW 4.1 8.2----1005.7- 24.8- 17.9---
2024-05-22 03:48 am S 3.1 7.7----1005.7- 24.8- 17.9---
2024-05-22 03:42 amSSW 3.6 8.2----1005.8- 24.7- 17.9---
2024-05-22 03:36 amSSW 4.6 7.2----1005.7- 24.7- 17.9---
2024-05-22 03:30 am S 3.6 7.7----1005.8- 24.8- 18.1---
2024-05-22 03:24 amSSW 4.6 8.8----1005.8- 24.8- 18.2---
2024-05-22 03:18 am S 3.6 7.2----1005.8- 24.8- 18.2---
2024-05-22 03:12 am S 5.1 10.3----1005.9- 24.9- 18.2---
2024-05-22 03:06 amSSW 4.1 9.3----1006.0- 25.0- 18.2---
2024-05-22 03:00 am S 3.6 8.2----1006.1 -0.7 25.0- 18.2---
2024-05-22 02:54 amSSW 4.6 7.2----1006.2- 25.1- 18.2---
2024-05-22 02:48 amSSW 3.6 8.8----1006.3- 25.0- 18.2---
2024-05-22 02:42 amSSW 4.1 6.7----1006.4- 24.9- 18.1---
2024-05-22 02:36 amSSW 4.6 7.7----1006.6- 24.9- 18.1---
2024-05-22 02:30 amSSW 4.1 7.2----1006.6- 24.9- 18.1---
2024-05-22 02:24 amSSW 5.7 8.2----1006.8- 24.9- 18.0---
2024-05-22 02:18 amSSW 5.1 7.7----1006.9- 25.0- 18.0---
2024-05-22 02:12 amSSW 4.6 8.2----1007.0- 25.0- 18.0---
2024-05-22 02:06 amSSW 6.2 9.3----1007.1- 25.1- 17.9---
2024-05-22 02:00 amSSW 5.7 8.2----1007.3 +0.5 25.2- 17.9---
2024-05-22 01:54 amSSW 6.2 9.3----1007.5- 25.3- 17.8---
2024-05-22 01:48 amSSW 5.1 9.3----1007.6- 25.4- 17.9---
2024-05-22 01:42 amSSW 4.1 7.7----1007.5- 25.4- 17.9---
2024-05-22 01:36 amSSW 4.6 7.2----1007.5- 25.4- 17.8---
2024-05-22 01:30 amSSW 5.1 8.8----1007.5- 25.4- 17.9---
2024-05-22 01:24 amSSW 4.1 8.2----1007.5- 25.5- 17.8---
2024-05-22 01:18 am S 4.6 7.7----1007.5- 25.6- 17.7---
2024-05-22 01:12 am S 4.6 8.2----1007.5- 25.7- 17.6---
2024-05-22 01:06 amSSW 4.1 8.2----1007.5- 25.7- 17.7---
2024-05-22 01:00 am S 3.1 6.2----1007.5 +0.9 25.6- 17.8---
2024-05-22 12:54 amSSW 3.6 7.7----1007.5- 25.6- 17.8---
2024-05-22 12:48 amSSW 5.7 8.2----1007.5- 25.9- 17.4---
2024-05-22 12:42 amSSW 3.1 8.2----1007.5- 26.0- 17.5---
2024-05-22 12:36 amSSW 6.7 8.8----1007.5- 25.9- 17.3---
2024-05-22 12:30 amSSW 4.6 8.2----1007.5- 25.9- 17.2---
2024-05-22 12:24 amSSW 4.1 8.8----1007.2- 25.9- 17.1---
2024-05-22 12:18 amSSW 6.2 9.8----1007.2- 26.0- 17.1---
2024-05-22 12:12 am S 4.6 8.8----1007.1- 26.1- 17.2---
2024-05-22 12:06 am S 3.6 7.2----1006.9- 26.0- 17.3---
2024-05-22 12:00 am S 5.1 6.7----1006.8 +0.4 25.9- 17.3---
2024-05-21 11:54 pm S 5.1 7.2----1006.6- 26.0- 17.4---
2024-05-21 11:48 pm S 3.1 6.7----1006.5- 26.1- 17.3---
2024-05-21 11:42 pm S 2.6 6.2----1006.5- 26.3- 17.1---
2024-05-21 11:36 pm S 3.6 6.2----1006.2- 26.2- 17.1---
2024-05-21 11:30 pm S 6.2 7.2----1006.3- 26.3- 17.2---
2024-05-21 11:24 pm S 4.6 7.2----1006.4- 26.3- 17.0---
2024-05-21 11:18 pm S 3.6 6.7----1006.5- 26.5- 17.1---
2024-05-21 11:12 pm S 3.6 6.2----1006.7- 26.4- 17.2---
2024-05-21 11:06 pm S 4.6 7.2----1006.7- 26.7- 17.0---
2024-05-21 11:00 pm S 3.6 7.7----1006.8 +0.0 26.9- 17.0---
2024-05-21 10:54 pm S 3.1 6.2----1006.9- 27.0- 16.9---
2024-05-21 10:48 pmSSW 4.1 7.7----1007.0- 27.4- 16.9---
2024-05-21 10:42 pm S 5.1 10.3----1006.9- 27.6- 16.7---
2024-05-21 10:36 pmSSW 4.6 8.2----1006.9- 27.7- 16.4---
2024-05-21 10:30 pmSSW 3.1 7.2----1006.9- 27.8- 16.3---
2024-05-21 10:24 pm S 4.6 7.7----1006.9- 28.0- 16.2---
2024-05-21 10:18 pm S 3.6 6.7----1007.0- 28.0- 15.9---
2024-05-21 10:12 pm S 4.6 7.7----1006.9- 27.9- 16.2---
2024-05-21 10:06 pm S 3.6 6.2----1006.7- 27.8- 16.1---
2024-05-21 10:00 pm S 3.6 6.7----1006.6 -0.6 27.8- 16.3---
2024-05-21 09:54 pm S 3.6 6.2----1006.6- 27.8- 16.4---
2024-05-21 09:48 pm S 3.6 6.2----1006.5- 27.9- 16.3---
2024-05-21 09:42 pm S 3.1 5.1----1006.5- 28.0- 16.6---
2024-05-21 09:36 pm S 3.1 6.2----1006.4- 28.0- 16.6---
2024-05-21 09:30 pm S 4.6 6.7----1006.3- 28.1- 16.5---
2024-05-21 09:24 pm S 4.6 6.7----1006.3- 28.3- 16.5---
2024-05-21 09:18 pm S 3.6 6.7----1006.2- 28.4- 16.4---
2024-05-21 09:12 pm S 4.1 6.2----1006.4- 28.6- 16.3---
2024-05-21 09:06 pmSSW 3.6 7.7----1006.5- 29.0- 16.5---
2024-05-21 09:00 pmSSW 4.1 7.7----1006.4 -1.4 29.0- 16.0---
2024-05-21 08:54 pm S 4.6 7.2----1006.4- 28.9- 15.9---
2024-05-21 08:48 pm S 4.6 6.2----1006.5- 29.0- 15.7---
2024-05-21 08:42 pm S 4.6 6.2----1006.6- 29.1- 15.8---
2024-05-21 08:36 pm S 4.6 6.2----1006.6- 29.3- 16.0---
2024-05-21 08:30 pm S 4.1 5.1----1006.5- 29.2- 16.4---
2024-05-21 08:24 pm S 4.1 5.1----1006.6- 29.5- 16.1---
2024-05-21 08:18 pm S 4.6 5.7----1006.6- 29.7- 16.1---
2024-05-21 08:12 pmSSE 5.7 6.2----1006.7- 29.9- 15.8---
2024-05-21 08:06 pm S 4.6 6.2----1006.8- 30.0- 16.0---
2024-05-21 08:00 pm S 4.6 6.7----1006.9 -1.2 30.3- 15.5---
2024-05-21 07:54 pm S 4.6 6.2----1006.9- 30.4- 15.6---
2024-05-21 07:48 pm S 4.6 6.7----1007.0- 30.4- 15.6---
2024-05-21 07:42 pm S 4.1 6.2----1007.0- 30.4- 15.7---
2024-05-21 07:36 pm S 5.1 6.2----1007.0- 30.5- 15.9---
2024-05-21 07:30 pm S 4.1 6.2----1007.1- 30.7- 15.4---
2024-05-21 07:24 pm S 5.1 7.2----1007.1- 30.8- 15.6---
2024-05-21 07:18 pm S 3.1 5.1----1007.1- 30.6- 16.0---
2024-05-21 07:12 pmSSW 3.6 6.2----1007.2- 31.2- 14.8---
2024-05-21 07:06 pmSSW 3.6 6.7----1007.2- 31.2- 14.6---
2024-05-21 07:00 pmWSW 3.1 5.1----1007.2 -1.9 31.3- 14.6---
2024-05-21 06:54 pmSSW 2.1 3.6----1007.3- 31.5- 14.8---
2024-05-21 06:48 pmSSW 2.6 3.6----1007.4- 30.9- 15.5---
2024-05-21 06:42 pm SW 2.6 6.2----1007.4- 31.9- 14.7---
2024-05-21 06:36 pm SW 2.6 5.1----1007.4- 31.9- 14.6---
2024-05-21 06:30 pm SW 2.1 4.1----1007.5- 32.5- 14.8---
2024-05-21 06:24 pm SW 2.6 4.6----1007.5- 32.2- 14.1---
2024-05-21 06:18 pmWSW 4.6 6.2----1007.7- 31.9- 14.1---
2024-05-21 06:12 pmWSW 3.6 6.2----1007.7- 31.9- 14.4---
2024-05-21 06:06 pmWSW 2.6 4.1----1007.8- 31.3- 14.2---
2024-05-21 06:00 pm SW 3.1 6.2----1007.8 -1.9 31.3- 14.0---
2024-05-21 05:54 pmWSW 3.1 5.7----1007.9- 31.6- 14.4---
2024-05-21 05:48 pm SW 2.1 4.1----1007.9- 31.3- 14.9---
2024-05-21 05:42 pmWSW 2.6 6.2----1007.8- 31.7- 14.8---
2024-05-21 05:36 pmWSW 3.6 6.2----1007.8- 32.1- 14.3---
2024-05-21 05:30 pmSSW 3.6 6.2----1007.9-------
2024-05-21 05:24 pm SW 3.6 6.2----1008.0-------
2024-05-21 05:18 pm SW 2.6 4.6----1008.0-------
2024-05-21 05:12 pmSSW 4.1 6.2----1008.0-------
2024-05-21 05:06 pm S 4.1 7.7----1008.0-------
2024-05-21 05:00 pm SW 2.6 4.1----1008.1 -1.9 32.0- 15.7---
2024-05-21 04:54 pmWSW 2.6 5.7----1008.1- 31.5- 14.5---